Location: Munkebjergskolens Observatorium
(55.3864°N, 10.3987°E)
Time: 13:50:21
(UTC+02:00)

BEESAT 3 - Visible Passes

Search period start: 02 April 2023 00:00
Search period end: 12 April 2023 00:00
Orbit: 408 x 434 km, 64.9° (Epoch: 01 April)

Date Brightness Start Highest point End Pass type
(mag) Time Alt. Az. Time Alt. Az. Time Alt. Az.
02 Apr ? 03:09:32 23° ENE 03:09:32 23° ENE 03:11:08 10° ENE visible
02 Apr ? 04:42:33 30° WNW 04:43:32 38° NNW 04:46:48 10° NE visible
03 Apr ? 02:24:49 11° ENE 02:24:49 11° ENE 02:25:01 10° ENE visible
03 Apr ? 03:57:49 57° NNW 03:57:49 57° NNW 04:01:01 10° NE visible
03 Apr ? 05:31:08 10° WNW 05:33:49 21° NNW 05:36:29 10° NE visible
04 Apr ? 03:12:53 35° NE 03:12:53 35° NE 03:15:01 10° NE visible
04 Apr ? 04:45:53 18° WNW 04:47:33 25° NNW 04:50:29 10° NE visible
05 Apr ? 02:27:46 18° ENE 02:27:46 18° ENE 02:28:46 10° NE visible
05 Apr ? 04:00:45 32° NW 04:01:10 34° NNW 04:04:20 10° NE visible
05 Apr ? 05:35:12 10° NW 05:37:35 17° N 05:39:59 10° NE visible
06 Apr ? 03:15:26 41° N 03:15:26 41° N 03:18:02 10° NE visible
06 Apr ? 04:48:24 10° WNW 04:50:55 19° NNW 04:53:30 10° NE visible
07 Apr ? 02:29:54 26° NE 02:29:54 26° NE 02:31:32 10° NE visible
07 Apr ? 04:02:52 19° NW 04:04:06 23° NNW 04:06:56 10° NE visible
07 Apr ? 05:38:21 10° NW 05:40:39 17° N 05:42:58 10° NE visible
08 Apr ? 01:44:12 14° NE 01:44:12 14° NE 01:44:47 10° NE visible
08 Apr ? 03:17:09 31° NNW 03:17:11 31° NNW 03:20:16 10° NE visible
08 Apr ? 04:51:16 10° NW 04:53:36 17° N 04:55:56 10° NE visible
09 Apr ? 02:31:14 32° NNE 02:31:14 32° NNE 02:33:26 10° NE visible
09 Apr ? 04:04:10 11° NW 04:06:23 19° NNW 04:08:53 10° NE visible
09 Apr ? 05:40:30 10° NW 05:42:58 18° N 05:45:26 10° ENE visible
10 Apr ? 01:45:07 21° NE 01:45:07 21° NE 01:46:25 10° NE visible
10 Apr ? 03:18:02 19° NW 03:19:03 22° NNW 03:21:47 10° NE visible
10 Apr ? 04:53:16 10° NW 04:55:34 17° N 04:57:52 10° NE visible
11 Apr ? 00:58:47 13° NE 00:58:47 13° NE 00:59:10 10° NE visible
11 Apr ? 02:31:42 28° NNW 02:31:42 28° NNW 02:34:34 10° NE visible
11 Apr ? 04:05:41 10° NW 04:07:59 17° N 04:10:16 10° NE visible
11 Apr ? 05:41:44 10° NW 05:44:29 22° NNE 05:47:14 10° ENE visible
